Gwinn, MI

9:54 PM EST on December 11, 2017 (GMT -0500)
Sawyer International

Weather History for KSAW - June, 2013

Change the Weather History Date:

Tuesday, June 25, 2013

  Actual Average (KESC) Record (KESC)
Temperature  
Mean Temperature 74 °F -  
Max Temperature 86 °F 70 °F 87 °F (2002)
Min Temperature 62 °F 54 °F 39 °F (2004)
Cooling Degree Days 9    
Growing Degree Days 24 (Base 50)    
Moisture  
Dew Point 59 °F    
Average Humidity 69    
Maximum Humidity 92    
Minimum Humidity 37    
Precipitation  
Precipitation 0.00 in - - ()
Sea Level Pressure  
Sea Level Pressure 29.83 in    
Wind  
Wind Speed 1 mph (NE)    
Max Wind Speed 13 mph    
Max Gust Speed -    
Visibility 10 miles    
Events      
Averages and records for this station are not official NWS values.
T = Trace of Precipitation, MM = Missing Value Source: NWS Daily Summary

Daily Weather History Graph

Daily Weather History Graph

Search for Another Location

Airport or City:

Trip Planner

Search our weather history database for the weather conditions in past years. The results will help you decide how hot, cold, wet, or windy it might be!

Date:

Astronomy

Jun. 25, 2013 Rise Set
Actual Time 5:58 AM EDT 9:45 PM EDT
Civil Twilight 5:19 AM EDT 10:24 PM EDT
Nautical Twilight 4:26 AM EDT 11:17 PM EDT
Astronomical Twilight 3:11 AM EDT 12:32 AM EDT
Moon 11:18 PM EDT (6/25) 8:47 AM EDT (6/25)
Length of Visible Light 17h 05m
Length of Day
15h 47m
Waning Gibbous, 93% of the Moon is Illuminated
Jun 25
Waning Gibbous
Jun 30
Last Quarter
Jul 8
New
Jul 15
First Quarter
Jul 22
Full

Hourly Weather History & Observations

Time (EDT) Temp. Heat Index Dew Point Humidity Pressure Visibility Wind Dir Wind Speed Gust Speed Precip Events Conditions
12:16 AM 67.1 °F - 59.2 °F 76% 29.83 in 10.0 mi Calm Calm - N/A   Scattered Clouds
12:37 AM 66.9 °F - 59.4 °F 77% 29.84 in 10.0 mi Calm Calm - N/A   Scattered Clouds
12:56 AM 66.4 °F - 57.4 °F 73% 29.83 in 10.0 mi Calm Calm - N/A   Clear
1:16 AM 66.0 °F - 57.2 °F 73% 29.84 in 10.0 mi Calm Calm - N/A   Clear
1:37 AM 65.3 °F - 57.2 °F 75% 29.84 in 10.0 mi Calm Calm - N/A   Clear
1:56 AM 66.2 °F - 56.8 °F 72% 29.84 in 10.0 mi Calm Calm - N/A   Clear
2:17 AM 65.5 °F - 56.8 °F 74% 29.83 in 10.0 mi Calm Calm - N/A   Mostly Cloudy
2:36 AM 64.9 °F - 57.4 °F 76% 29.83 in 10.0 mi Calm Calm - N/A   Mostly Cloudy
2:56 AM 66.2 °F - 58.5 °F 76% 29.83 in 10.0 mi Calm Calm - N/A   Overcast
3:16 AM 65.3 °F - 58.8 °F 80% 29.83 in 10.0 mi Calm Calm - N/A   Mostly Cloudy
3:36 AM 65.3 °F - 59.0 °F 80% 29.83 in 10.0 mi Calm Calm - N/A   Mostly Cloudy
3:57 AM 65.3 °F - 59.9 °F 83% 29.83 in 10.0 mi Calm Calm - N/A   Overcast
4:16 AM 65.3 °F - 60.8 °F 85% 29.83 in 10.0 mi Calm Calm - N/A   Mostly Cloudy
4:37 AM 64.2 °F - 60.3 °F 87% 29.82 in 7.0 mi Calm Calm - N/A   Scattered Clouds
4:56 AM 63.5 °F - 59.9 °F 88% 29.82 in 10.0 mi Calm Calm - N/A   Scattered Clouds
5:17 AM 63.5 °F - 60.8 °F 91% 29.82 in 10.0 mi Calm Calm - N/A   Clear
5:36 AM 63.5 °F - 60.8 °F 91% 29.83 in 10.0 mi Calm Calm - N/A   Clear
5:57 AM 62.8 °F - 60.4 °F 92% 29.83 in 10.0 mi Calm Calm - N/A   Clear
6:50 AM 62.6 °F - 59.0 °F 88% 29.84 in 10.0 mi Calm Calm - N/A   Clear
7:50 AM 66.2 °F - 62.6 °F 88% 29.83 in 10.0 mi Calm Calm - N/A   Clear
8:50 AM 71.6 °F - 62.6 °F 73% 29.84 in 10.0 mi West 4.6 mph - N/A   Clear
9:50 AM 77.0 °F - 60.8 °F 57% 29.84 in 10.0 mi NNW 3.5 mph - N/A   Clear
10:50 AM 80.6 °F 80.8 °F 57.2 °F 45% 29.84 in 10.0 mi North 5.8 mph - N/A   Clear
11:50 AM 82.4 °F 82.0 °F 57.2 °F 42% 29.84 in 10.0 mi ENE 5.8 mph - N/A   Scattered Clouds
12:55 PM 82.4 °F 82.0 °F 57.2 °F 42% 29.85 in 10.0 mi NE 8.1 mph - N/A   Scattered Clouds
1:50 PM 82.4 °F 81.7 °F 55.4 °F 39% 29.84 in 10.0 mi Calm Calm - N/A   Clear
2:50 PM 84.2 °F 83.0 °F 55.4 °F 37% 29.83 in 10.0 mi WSW 3.5 mph - N/A   Clear
3:50 PM 86.0 °F 84.9 °F 57.2 °F 37% 29.83 in 10.0 mi Calm Calm - N/A   Scattered Clouds
4:50 PM 84.2 °F 83.5 °F 57.2 °F 40% 29.82 in 10.0 mi NNE 12.7 mph - N/A   Scattered Clouds
5:55 PM 78.8 °F - 57.2 °F 47% 29.83 in 10.0 mi NE 9.2 mph - N/A   Scattered Clouds
6:50 PM 75.2 °F - 57.2 °F 53% 29.83 in 10.0 mi NE 8.1 mph - N/A   Clear
7:50 PM 75.2 °F - 59.0 °F 57% 29.83 in 10.0 mi NNE 6.9 mph - N/A   Clear
8:50 PM 73.4 °F - 60.8 °F 65% 29.82 in 10.0 mi East 3.5 mph - N/A   Clear
9:50 PM 71.6 °F - 59.0 °F 64% 29.82 in 10.0 mi East 4.6 mph - N/A   Clear
10:17 PM 71.6 °F - 59.9 °F 66% 29.83 in 10.0 mi East 3.5 mph - N/A   Clear
10:36 PM 71.2 °F - 60.3 °F 68% 29.83 in 10.0 mi ESE 3.5 mph - N/A   Clear
10:56 PM 71.2 °F - 61.0 °F 70% 29.83 in 10.0 mi Calm Calm - N/A   Clear
11:17 PM 70.9 °F - 61.9 °F 73% 29.83 in 10.0 mi ESE 3.5 mph - N/A   Clear
11:36 PM 70.7 °F - 62.4 °F 75% 29.83 in 7.0 mi Calm Calm - N/A   Clear
11:57 PM 69.8 °F - 62.8 °F 78% 29.83 in 10.0 mi Calm Calm - N/A   Clear